C/2018 N1 ( NEOWISE )

Japanese version
Home page
Updated on September 16, 2018

---------------------------------------------------------------------

* Profile

Discovery Date July 2, 2018
Magnitude 16 mag
Discoverer Near-Earth Object Wide-field Infrared Survey Explorer

* Orbital Elements

Epoch 2018 July 21.0 TT = JDT 2458320.5
T 2018 Aug. 1.97445 TT                                  MPCW
q   1.3074571            (2000.0)            P               Q
z  +0.0009497      Peri.  354.54861     +0.46211203     -0.82532494
 +/-0.0039870      Node   292.43376     -0.79980124     -0.54593372
e   0.9987584      Incl.  159.44825     -0.38310632     +0.14420510
From 133 observations 2018 June 29-July 22, mean residual 0".6.

* Finding Charts

* Magnitudes Graph

        m1 = 10.0 + 5 log d + 10.0 log r

---------------------------------------------------------------------

The orbital elements are published on M.P.E.C. 2018-O38.
The charts are made with StellaNavigator Ver.10 (AstroArts).
The magnitudes graphs are made with Comet for Windows.

---------------------------------------------------------------------

Copyright(C) Seiichi Yoshida (comet@aerith.net). All rights reserved.